Weather History for KSLR - October, 2013

Change the Weather History Date:

Wednesday, October 9, 2013

  Actual Average (KGVT) Record (KGVT)
Temperature  
Mean Temperature 65 °F -  
Max Temperature 81 °F 76 °F 87 °F (2014)
Min Temperature 50 °F 58 °F 42 °F (2005)
Growing Degree Days 15 (Base 50)    
Moisture  
Dew Point 52 °F    
Average Humidity 67    
Maximum Humidity 95    
Minimum Humidity 37    
Precipitation  
Precipitation 0.00 in - - ()
Sea Level Pressure  
Sea Level Pressure 30.07 in    
Wind  
Wind Speed 4 mph (SE)    
Max Wind Speed 8 mph    
Max Gust Speed -    
Visibility 10 miles    
Events      
Averages and records for this station are not official NWS values.
T = Trace of Precipitation, MM = Missing Value Source: NWS Daily Summary

Daily Weather History Graph

Daily Weather History Graph

Search for Another Location

Airport or City:

Trip Planner

Search our weather history database for the weather conditions in past years. The results will help you decide how hot, cold, wet, or windy it might be!

Date:

Astronomy

Oct. 09, 2013 Rise Set
Actual Time 7:22 AM CDT 6:56 PM CDT
Civil Twilight 6:57 AM CDT 7:20 PM CDT
Nautical Twilight 6:29 AM CDT 7:49 PM CDT
Astronomical Twilight 6:00 AM CDT 8:18 PM CDT
Moon 12:07 PM CDT (10/9) 10:43 PM CDT (10/9)
Length of Visible Light 12h 23m
Length of Day
11h 33m
Waxing Crescent, 25% of the Moon is Illuminated
Oct 9
Waxing Crescent
Oct 11
First Quarter
Oct 18
Full
Oct 26
Last Quarter
Nov 3
New

Hourly Weather History & Observations

Time (CDT) Temp. Heat Index Dew Point Humidity Pressure Visibility Wind Dir Wind Speed Gust Speed Precip Events Conditions
12:15 AM 58.5 °F - 50.7 °F 75% 30.06 in 10.0 mi ESE 5.8 mph - N/A   Clear
12:35 AM 59.4 °F - 50.7 °F 73% 30.06 in 10.0 mi ESE 4.6 mph - N/A   Clear
12:55 AM 58.5 °F - 50.4 °F 74% 30.06 in 10.0 mi ESE 3.5 mph - N/A   Clear
1:15 AM 57.2 °F - 50.2 °F 77% 30.06 in 10.0 mi Calm Calm - N/A   Clear
1:35 AM 56.3 °F - 50.2 °F 80% 30.06 in 10.0 mi ESE 3.5 mph - N/A   Clear
1:55 AM 54.9 °F - 50.0 °F 84% 30.06 in 10.0 mi ESE 3.5 mph - N/A   Clear
2:15 AM 55.4 °F - 50.2 °F 83% 30.06 in 10.0 mi East 3.5 mph - N/A   Clear
2:35 AM 54.5 °F - 50.4 °F 86% 30.06 in 10.0 mi Calm Calm - N/A   Clear
2:55 AM 54.0 °F - 50.2 °F 87% 30.06 in 10.0 mi East 3.5 mph - N/A   Clear
3:15 AM 53.6 °F - 50.2 °F 88% 30.06 in 10.0 mi East 3.5 mph - N/A   Clear
3:35 AM 53.6 °F - 50.5 °F 89% 30.06 in 10.0 mi Calm Calm - N/A   Clear
3:55 AM 52.7 °F - 50.0 °F 91% 30.06 in 10.0 mi Calm Calm - N/A   Clear
4:15 AM 53.1 °F - 50.5 °F 91% 30.06 in 10.0 mi ESE 3.5 mph - N/A   Clear
4:35 AM 52.9 °F - 50.2 °F 91% 30.06 in 10.0 mi Calm Calm - N/A   Clear
4:55 AM 52.9 °F - 50.5 °F 92% 30.06 in 10.0 mi Calm Calm - N/A   Clear
5:15 AM 52.9 °F - 50.0 °F 90% 30.06 in 10.0 mi Calm Calm - N/A   Clear
5:35 AM 52.7 °F - 50.4 °F 92% 30.07 in 10.0 mi Calm Calm - N/A   Clear
5:55 AM 52.7 °F - 50.5 °F 92% 30.07 in 10.0 mi Calm Calm - N/A   Clear
6:15 AM 51.6 °F - 49.3 °F 92% 30.08 in 10.0 mi East 3.5 mph - N/A   Clear
6:35 AM 50.4 °F - 48.6 °F 94% 30.08 in 7.0 mi ENE 3.5 mph - N/A   Clear
6:55 AM 50.0 °F - 48.4 °F 94% 30.09 in 7.0 mi East 3.5 mph - N/A   Clear
7:15 AM 50.9 °F - 49.3 °F 94% 30.09 in 10.0 mi Calm Calm - N/A   Clear
7:35 AM 50.9 °F - 49.3 °F 94% 30.10 in 7.0 mi Calm Calm - N/A   Clear
7:55 AM 51.3 °F - 50.0 °F 95% 30.10 in 7.0 mi ESE 3.5 mph - N/A   Clear
8:15 AM 52.5 °F - 51.3 °F 95% 30.11 in 7.0 mi Calm Calm - N/A   Clear
8:35 AM 55.0 °F - 53.4 °F 94% 30.12 in 10.0 mi Calm Calm - N/A   Clear
8:55 AM 57.7 °F - 54.3 °F 88% 30.12 in 10.0 mi Calm Calm - N/A   Clear
9:15 AM 61.2 °F - 55.0 °F 80% 30.12 in 10.0 mi Calm Calm - N/A   Clear
9:35 AM 64.6 °F - 54.0 °F 68% 30.13 in 10.0 mi South 4.6 mph - N/A   Clear
9:55 AM 67.3 °F - 54.1 °F 63% 30.14 in 10.0 mi South 5.8 mph - N/A   Clear
10:15 AM 69.1 °F - 53.8 °F 58% 30.13 in 10.0 mi South 6.9 mph - N/A   Clear
10:35 AM 70.5 °F - 54.1 °F 56% 30.14 in 10.0 mi South 6.9 mph - N/A   Clear
10:55 AM 71.6 °F - 54.7 °F 55% 30.14 in 10.0 mi South 6.9 mph - N/A   Clear
11:15 AM 72.5 °F - 54.1 °F 52% 30.14 in 10.0 mi South 8.1 mph - N/A   Clear
11:35 AM 73.9 °F - 54.1 °F 50% 30.13 in 10.0 mi South 5.8 mph - N/A   Clear
11:55 AM 74.5 °F - 54.5 °F 50% 30.13 in 10.0 mi SSW 5.8 mph - N/A   Clear
12:15 PM 75.6 °F - 54.3 °F 48% 30.12 in 10.0 mi South 8.1 mph - N/A   Clear
12:35 PM 76.6 °F - 53.6 °F 45% 30.12 in 10.0 mi SW 8.1 mph - N/A   Clear
12:55 PM 76.8 °F - 54.0 °F 45% 30.11 in 10.0 mi SSE 6.9 mph - N/A   Clear
1:15 PM 77.9 °F - 53.8 °F 43% 30.10 in 10.0 mi Calm Calm - N/A   Clear
1:35 PM 78.4 °F - 54.1 °F 43% 30.09 in 10.0 mi SE 3.5 mph - N/A   Clear
1:55 PM 79.5 °F - 52.3 °F 39% 30.07 in 10.0 mi SSW 3.5 mph - N/A   Clear
2:15 PM 79.0 °F - 51.1 °F 38% 30.06 in 10.0 mi SSE 4.6 mph - N/A   Clear
2:35 PM 79.7 °F - 52.7 °F 39% 30.06 in 10.0 mi South 3.5 mph - N/A   Clear
2:55 PM 80.4 °F 80.1 °F 53.1 °F 39% 30.05 in 10.0 mi Calm Calm - N/A   Clear
3:15 PM 79.9 °F - 52.0 °F 38% 30.05 in 10.0 mi Calm Calm - N/A   Clear
3:55 PM 79.3 °F - 51.3 °F 37% 30.05 in 10.0 mi SSE 6.9 mph - N/A   Clear
4:15 PM 78.8 °F - 53.2 °F 41% 30.05 in 10.0 mi SSE 5.8 mph - N/A   Clear
4:35 PM 78.3 °F - 54.0 °F 43% 30.04 in 10.0 mi SE 5.8 mph - N/A   Clear
4:55 PM 77.9 °F - 53.4 °F 43% 30.05 in 10.0 mi SE 5.8 mph - N/A   Clear
5:15 PM 79.9 °F - 52.0 °F 38% 30.04 in 10.0 mi ESE 8.1 mph - N/A   Clear
5:35 PM 78.3 °F - 52.0 °F 40% 30.04 in 10.0 mi SSE 8.1 mph - N/A   Clear
5:55 PM 78.3 °F - 51.4 °F 39% 30.04 in 10.0 mi SE 6.9 mph - N/A   Clear
6:15 PM 77.2 °F - 53.2 °F 43% 30.04 in 10.0 mi SE 5.8 mph - N/A   Clear
6:55 PM 73.2 °F - 54.7 °F 52% 30.04 in 10.0 mi East 5.8 mph - N/A   Clear
7:15 PM 71.1 °F - 55.2 °F 57% 30.04 in 10.0 mi East 5.8 mph - N/A   Clear
7:35 PM 70.0 °F - 55.4 °F 60% 30.04 in 10.0 mi East 4.6 mph - N/A   Clear
7:55 PM 68.9 °F - 55.4 °F 62% 30.04 in 10.0 mi East 4.6 mph - N/A   Clear
8:15 PM 67.8 °F - 55.6 °F 65% 30.04 in 10.0 mi East 4.6 mph - N/A   Clear
8:35 PM 66.4 °F - 55.4 °F 68% 30.04 in 10.0 mi ESE 5.8 mph - N/A   Clear
8:55 PM 66.6 °F - 55.2 °F 67% 30.05 in 10.0 mi ESE 5.8 mph - N/A   Clear
9:15 PM 66.6 °F - 54.5 °F 65% 30.05 in 10.0 mi ESE 4.6 mph - N/A   Clear
9:35 PM 66.2 °F - 54.0 °F 65% 30.06 in 10.0 mi ESE 4.6 mph - N/A   Clear
9:55 PM 66.2 °F - 53.8 °F 64% 30.06 in 10.0 mi ESE 6.9 mph - N/A   Clear
10:15 PM 65.8 °F - 54.0 °F 65% 30.06 in 10.0 mi ESE 6.9 mph - N/A   Clear
10:35 PM 65.5 °F - 54.0 °F 66% 30.07 in 10.0 mi ESE 6.9 mph - N/A   Clear
10:55 PM 65.5 °F - 54.1 °F 67% 30.07 in 10.0 mi SE 6.9 mph - N/A   Clear
11:15 PM 65.3 °F - 54.1 °F 67% 30.07 in 10.0 mi SE 6.9 mph - N/A   Clear
11:55 PM 63.5 °F - 53.8 °F 71% 30.07 in 10.0 mi SE 5.8 mph - N/A   Clear